Regional Weather Roundup
Issued by NWS

Home | Current Version | Previous Version | Text Only | Print | Product List | Glossary Off
Versions: 1 2 3 4 5 6 7 8 9 10 11 12 13 14 15 16 17 18 19 20 21 22 23 24 25 26 27 28 29 30 31 32 33 34 35 36 37 38 39 40 41 42 43 44 45 46 47 48 49 50

000
ASUS45 KTFX 300419
RWRMT
MONTANA HOURLY WEATHER ROUNDUP
NATIONAL WEATHER SERVICE GREAT FALLS MT
1019 PM MDT MON SEP 29 2014

NOTE: "FAIR" INDICATES FEW OR NO CLOUDS BELOW 12000 FEET WITH NO
SIGNIFICANT WEATHER AND/OR OBSTRUCTIONS TO VISIBILITY.

* THESE STATIONS ARE NOT UNDER NWS QUALITY CONTROL. THEY DO NOT
   REPORT WEATHER SUCH AS PRECIPITATION OR FOG.

MTZ001>007-043-300500-
WEST OF THE DIVIDE
CITY           SKY/WX    TMP DP  RH WIND       PRES   REMARKS
KALISPELL      CLOUDY    55  48  77 S13       29.77S
MISSOULA       LGT RAIN  52  52 100 W3        29.85S
BUTTE          LGT RAIN  50  45  83 NW5       29.87S
MULLAN PASS    MOCLDY    43  41  93 NW5       29.88F
* ESSEX        N/A       53  45  74 S1         N/A
* LINCOLN      N/A       54  43  67 SW5G13     N/A
* LOOKOUT PASS N/A       46  43  89 N4         N/A
* POLSON       N/A       49  49 100 S1         N/A
* RONAN APT    CLOUDY    52  48  86 N/A        N/A
* SEELEY LAKE  N/A       49  47  93 SE1G7      N/A
* THOMP F APT  CLOUDY    43  41  93 SW2G13     N/A
* YAAK HILL    N/A       56  44  64 E1         N/A
$$

MTZ008-052>055-300500-
SOUTHWEST MONTANA
CITY           SKY/WX    TMP DP  RH WIND       PRES   REMARKS
BOZEMAN        CLOUDY    50  43  77 SE6       29.82S
DILLON         MOCLDY    48  43  83 SW7       29.85F
W YELLOWSTONE  N/A       41  41 100 SW8       29.96F
* THREE FORKS  PTCLDY    54  54 100 SW7        N/A
* BOULDER HILL N/A       50  39  66 N/A        N/A
* RAYNOLDS PAS N/A       43  28  56 S10        N/A
* WHITEHALL    N/A       57  42  57 W6G14      N/A
* WISE RIVER   N/A       48  45  89 NW2        N/A
$$

MTZ009>010-012-014-046-048-049-054-300500-
EAST SLOPES AND CENTRAL MONTANA
CITY           SKY/WX    TMP DP  RH WIND       PRES   REMARKS
CUT BANK       CLOUDY    55  43  64 SW9       29.67F
GREAT FALLS    PTCLDY    54  45  72 SW12      29.68F
HELENA         CLOUDY    57  46  67 W14       29.77F
MALMSTROM AFB  MOCLDY    55  45  69 SW14      29.70F
* CONRAD       MOCLDY    55  52  90 N/A        N/A
* DEARBORN     N/A       59  45  60 S6         N/A
* EAST GLACIER N/A       52  39  61 W14G20     N/A
* MONARCH      N/A       53  33  47 S12G18     N/A
* PENDROY      N/A       54  42  64 W8G13      N/A
* SAINT MARY   N/A       53  41  64 S11G25     N/A
* SWEET GRASS  N/A       56  45  67 S11        N/A
* WHITE SULPH  N/A       53  42  66 S9G15      N/A
$$

MTZ011-013-016-021-035-040-045-047-050-051-300500-
NORTH CENTRAL MONTANA
CITY           SKY/WX    TMP DP  RH WIND       PRES   REMARKS
LEWISTOWN      CLEAR     50  43  77 SW13      29.73F
* CHINOOK      MOCLDY    50  48  93 E10       29.67F
* FORT BENTON  PTCLDY    54  48  80 E6        29.68F
* CHESTER      N/A       51  47  86 SE9G18     N/A
* DENTON       N/A       53  45  74 S17G24     N/A
* GEYSER       N/A       50  40  69 SW4        N/A
* JUDITH GAP   N/A       45  44  96 S9         N/A
* LOMA         N/A       51  49  93 NE10       N/A
$$

MTZ017>020-022>027-061-062-300500-
NORTHEAST MONTANA
CITY           SKY/WX    TMP DP  RH WIND       PRES   REMARKS
GLASGOW        PTCLDY    48  46  93 E15       29.76F
GLENDIVE       CLOUDY    52  48  86 SE8       29.87F
JORDAN         PTCLDY    48  46  93 E8        29.79S
SIDNEY         CLOUDY    52  48  86 S12       29.90S
WOLF POINT     CLOUDY    52  48  86 E5        29.83F
* BEAVER HILL  N/A       49  48  96 SE17       N/A
* CIRCLE       N/A       50  48  93 SE5        N/A
* LINDSAY DVD  N/A       49  48  96 E10G17     N/A
* NAVAJO       N/A       48  46  93 SE14G19    N/A
* SACO         N/A       49  47  93 E14        N/A
$$

MTZ028>042-056>058-300500-
SOUTHCENTRAL AND SOUTHEAST MONTANA
CITY           SKY/WX    TMP DP  RH WIND       PRES   REMARKS
BAKER          FOG       50  50 100 SE10      29.86F
BILLINGS       CLEAR     52  48  86 SE7       29.78F
LIVINGSTON     PTCLDY    54  43  67 W18G25    29.79F
MILES CITY     MOCLDY    54  48  80 SE8       29.82S
* LAUREL APT   CLEAR     46  45  96 N/A        N/A
* ROUNDUP APT  CLEAR     52  46  80 N/A        N/A
* ALZADA       N/A       50  50 100 E9         N/A
* HYSHAM       N/A       51  48  90 E4         N/A
* LAME DEER    N/A       51  50  96 E5         N/A
* REED POINT   N/A       49  46  89 NE1        N/A
* ROSCOE HILL  N/A       45  36  71 S7         N/A
$$

REGIONAL REPORTS...DAKOTAS
CITY           SKY/WX    TMP DP  RH WIND       PRES   REMARKS
WILLISTON      CLOUDY    54  48  80 SE10      29.89F
DICKINSON      LGT RAIN  52  48  86 SE12      29.88F
BEACH          N/A       50  50 100 SE15G22   29.88F
CROSBY         CLOUDY    50  48  93 SE12G21   29.89F
TIOGA          CLOUDY    48  48 100 SE9       29.94F
WATFORD CITY   CLOUDY    50  48  93 SE10      29.87F
BISMARCK       CLOUDY    55  48  77 E9        29.96F
GRAND FORKS    CLEAR     48  45  89 E8        30.05F
FARGO          PTCLDY    52  45  77 SE10      30.05F
BUFFALO SD     CLOUDY    54  52  93 E9        29.81F
RAPID CITY     HVY RAIN  54  52  93 NW5       29.85F VSB 2 1/2
$$

REGIONAL REPORTS...WYOMING/IDAHO/WASHINGTON
CITY           SKY/WX    TMP DP  RH WIND       PRES   REMARKS
GILLETTE       CLOUDY    52  48  86 CALM      29.82F
SHERIDAN       MOCLDY    54  50  86 NW6       29.81S
CODY           PTCLDY    54  37  53 NW8G16    29.84F
YELLOWSTONE LA CLOUDY    39  34  82 W7        30.01F WCI  34
SALMON         CLOUDY    52  50  93 S6        29.89R
MULLAN PASS    MOCLDY    43  41  93 NW5       29.88S
SAND POINT     CLOUDY    52  48  86 CALM      29.76F
SPOKANE        CLOUDY    66  43  43 S13       29.76S
$$

REGIONAL REPORTS...ALBERTA
CITY           SKY/WX    TMP DP  RH WIND       PRES   REMARKS
CALGARY        MOCLDY    54  43  67 NW7       29.59F
LETHBRIDGE     MOCLDY    59  43  56 SW13G22   29.58R
MEDICINE HAT   MOCLDY    54  46  74 S6        29.60F
EDMONTON       MOCLDY    46  43  89 VRB2      29.56S
WATERTON GATE  N/A       55  41  59 SW17G28    N/A
CARDSTON       N/A       59  43  56 W13G20     N/A
MILK RIVER     N/A       55  45  69 S7         N/A
$$

REGIONAL REPORTS...SASKATCHEWAN
CITY           SKY/WX    TMP DP  RH WIND       PRES   REMARKS
SWIFT CURRENT  CLOUDY    46  45  96 S22G31    29.72F
REGINA         CLOUDY    48  43  83 SE22      29.86F
VAL MARIE      N/A       48  46  93 SE14G20    N/A
ASSINIBOIA     N/A       48  45  89 SE8G17     N/A
CORONACH       N/A       48  46  93 SE15       N/A

$$




USA.gov is the U.S. government's official web portal to all federal, state and local government web resources and services.